Location: Wildlife_Club
(35.6000°N, 81.4330°W)
Time: 00:13:00
(UTC-04:00)

A-11 Canister half - Pass Details

Date: 26 June 2019
Orbit: 1514 x 1685 km, 47.2° (Epoch: 17 July)

Event Time Altitude Azimuth Distance (km) Brightness Sun altitude
Rises 13:56:39 0° 287° (WNW) 4,882 11.7 76.3°
Reaches altitude 10° 14:00:07 10° 294° (WNW) 3,873 11.3 76.0°
Maximum altitude 14:09:19 42° 3° (N) 2,156 10.3 74.9°
Drops below altitude 10° 14:18:13 10° 72° (ENE) 3,744 11.0 73.7°
Sets 14:21:30 0° 80° (E) 4,706 11.4 73.2°
